• In Österreich
  • Länderverzeichnis
  • Für 7 Tage
  • Wassertemperatur
  • Satellitenkarten
  • Wetterkarte
  • News
  • Widgets
  • user-avatar
    Anmelden

    Stündliche Wetter Avon

    Heute, 16 Oktober, Dienstag

    Zeit Temperatur Niederschläge Wind Luftdruck Luftfeuchtigkeit
    00:00 +20°C° 0 mm 1 m/S 754 mmHg 51%
    01:00 +20°C° 0 mm 1 m/S 754 mmHg 51%
    02:00 +20°C° 0 mm 1 m/S 754 mmHg 52%
    03:00 +19°C° 0 mm 1 m/S 754 mmHg 52%
    04:00 +19°C° 0 mm 1 m/S 754 mmHg 54%
    05:00 +18°C° 0 mm 1 m/S 755 mmHg 56%
    06:00 +18°C° 0 mm 1 m/S 755 mmHg 58%
    07:00 +19°C° 0 mm 1 m/S 755 mmHg 55%
    08:00 +21°C° 0 mm 1 m/S 755 mmHg 51%
    09:00 +22°C° 0 mm 1 m/S 756 mmHg 48%
    10:00 +23°C° 0 mm 1 m/S 756 mmHg 46%
    11:00 +25°C° 0 mm 1 m/S 756 mmHg 43%
    12:00 +26°C° 0 mm 1 m/S 756 mmHg 41%
    13:00 +26°C° 0 mm 1 m/S 756 mmHg 40%
    14:00 +26°C° 0 mm 1 m/S 755 mmHg 40%
    15:00 +26°C° 0 mm 1 m/S 755 mmHg 40%
    16:00 +24°C° 0 mm 1 m/S 755 mmHg 45%
    17:00 +23°C° 0 mm 1 m/S 755 mmHg 50%
    18:00 +21°C° 0 mm 1 m/S 756 mmHg 55%
    19:00 +20°C° 0 mm 1 m/S 756 mmHg 58%
    20:00 +20°C° 0 mm 1 m/S 756 mmHg 61%
    21:00 +19°C° 0 mm 1 m/S 756 mmHg 63%
    22:00 +19°C° 0 mm 1 m/S 756 mmHg 66%
    23:00 +18°C° 0 mm 1 m/S 756 mmHg 69%

    Morgen, 17 Oktober, Mittwoch

    Zeit Temperatur Niederschläge Wind Luftdruck Luftfeuchtigkeit
    00:00 +18°C° 0 mm 1 m/S 756 mmHg 71%
    01:00 +16°C° 0 mm 1 m/S 756 mmHg 74%
    02:00 +16°C° 0 mm 1 m/S 756 mmHg 76%
    03:00 +16°C° 0 mm 1 m/S 756 mmHg 79%
    04:00 +15°C° 0 mm 1 m/S 756 mmHg 81%
    05:00 +15°C° 0 mm 1 m/S 756 mmHg 83%
    06:00 +14°C° 0 mm 1 m/S 756 mmHg 86%
    07:00 +16°C° 0 mm 1 m/S 756 mmHg 79%
    08:00 +18°C° 0 mm 1 m/S 756 mmHg 73%
    09:00 +20°C° 0 mm 1 m/S 756 mmHg 66%
    10:00 +21°C° 0 mm 1 m/S 756 mmHg 61%
    11:00 +23°C° 0 mm 2 m/S 756 mmHg 56%
    12:00 +24°C° 0 mm 2 m/S 756 mmHg 51%
    13:00 +24°C° 0 mm 2 m/S 755 mmHg 50%
    14:00 +24°C° 0 mm 2 m/S 755 mmHg 50%
    15:00 +24°C° 0 mm 3 m/S 755 mmHg 49%
    16:00 +22°C° 0 mm 3 m/S 755 mmHg 55%
    17:00 +20°C° 0 mm 3 m/S 755 mmHg 60%
    18:00 +19°C° 0 mm 3 m/S 755 mmHg 66%
    19:00 +18°C° 0 mm 3 m/S 756 mmHg 69%
    20:00 +17°C° 0 mm 3 m/S 756 mmHg 72%
    21:00 +17°C° 0 mm 3 m/S 756 mmHg 75%
    22:00 +16°C° 0 mm 3 m/S 756 mmHg 78%
    23:00 +16°C° 0 mm 3 m/S 756 mmHg 81%

    übermorgen, 18 Oktober, Donnerstag

    Zeit Temperatur Niederschläge Wind Luftdruck Luftfeuchtigkeit
    00:00 +15°C° 0 mm 2 m/S 756 mmHg 83%
    01:00 +14°C° 0 mm 3 m/S 756 mmHg 85%
    02:00 +13°C° 0 mm 3 m/S 756 mmHg 87%
    03:00 +13°C° 0 mm 3 m/S 756 mmHg 89%
    04:00 +13°C° 0 mm 3 m/S 756 mmHg 91%
    05:00 +12°C° 0 mm 3 m/S 756 mmHg 92%
    06:00 +12°C° 0 mm 3 m/S 757 mmHg 93%
    07:00 +13°C° 0 mm 3 m/S 757 mmHg 87%
    08:00 +16°C° 0 mm 3 m/S 757 mmHg 81%
    09:00 +17°C° 0 mm 4 m/S 757 mmHg 74%
    10:00 +19°C° 0 mm 4 m/S 757 mmHg 68%
    11:00 +20°C° 0 mm 4 m/S 757 mmHg 62%
    12:00 +22°C° 0 mm 4 m/S 757 mmHg 55%
    13:00 +22°C° 0 mm 4 m/S 757 mmHg 55%
    14:00 +22°C° 0 mm 4 m/S 757 mmHg 54%
    15:00 +22°C° 0 mm 4 m/S 756 mmHg 54%
    16:00 +21°C° 0 mm 4 m/S 757 mmHg 61%
    17:00 +19°C° 0 mm 4 m/S 757 mmHg 68%
    18:00 +18°C° 0 mm 4 m/S 757 mmHg 76%
    19:00 +17°C° 0 mm 4 m/S 757 mmHg 80%
    20:00 +17°C° 0 mm 3 m/S 758 mmHg 84%
    21:00 +16°C° 0 mm 3 m/S 758 mmHg 88%
    22:00 +16°C° 0 mm 3 m/S 758 mmHg 89%
    23:00 +14°C° 0 mm 3 m/S 758 mmHg 91%

    19 Oktober, Freitag

    Zeit Temperatur Niederschläge Wind Luftdruck Luftfeuchtigkeit
    00:00 +15°C° 0 mm 2 m/S 758 mmHg 92%
    01:00 +14°C° 0 mm 2 m/S 758 mmHg 93%
    02:00 +14°C° 0 mm 2 m/S 758 mmHg 93%
    03:00 +14°C° 0 mm 2 m/S 758 mmHg 94%
    04:00 +13°C° 0 mm 2 m/S 758 mmHg 94%
    05:00 +13°C° 0 mm 2 m/S 758 mmHg 94%
    06:00 +13°C° 0 mm 2 m/S 758 mmHg 94%
    07:00 +14°C° 0 mm 2 m/S 759 mmHg 87%
    08:00 +16°C° 0 mm 2 m/S 759 mmHg 79%
    09:00 +17°C° 0 mm 3 m/S 759 mmHg 72%
    10:00 +19°C° 0 mm 3 m/S 759 mmHg 65%
    11:00 +20°C° 0 mm 3 m/S 759 mmHg 59%
    12:00 +22°C° 0 mm 3 m/S 759 mmHg 52%
    13:00 +22°C° 0 mm 3 m/S 759 mmHg 51%
    14:00 +22°C° 0 mm 3 m/S 759 mmHg 50%
    15:00 +22°C° 0 mm 3 m/S 759 mmHg 49%
    16:00 +20°C° 0 mm 3 m/S 759 mmHg 55%
    17:00 +19°C° 0 mm 2 m/S 759 mmHg 62%
    18:00 +17°C° 0 mm 2 m/S 760 mmHg 68%
    19:00 +17°C° 0 mm 3 m/S 760 mmHg 73%
    20:00 +16°C° 0 mm 3 m/S 760 mmHg 77%
    21:00 +16°C° 0 mm 3 m/S 761 mmHg 81%
    22:00 +14°C° 0 mm 3 m/S 761 mmHg 84%
    23:00 +14°C° 0 mm 3 m/S 761 mmHg 87%

    20 Oktober, Samstag

    Zeit Temperatur Niederschläge Wind Luftdruck Luftfeuchtigkeit
    00:00 +13°C° 0 mm 3 m/S 761 mmHg 90%
    01:00 +13°C° 0 mm 3 m/S 761 mmHg 91%
    02:00 +13°C° 0 mm 3 m/S 761 mmHg 93%
    03:00 +13°C° 0 mm 2 m/S 761 mmHg 94%
    04:00 +12°C° 0 mm 3 m/S 762 mmHg 94%
    05:00 +12°C° 0 mm 3 m/S 762 mmHg 94%
    06:00 +11°C° 0 mm 3 m/S 762 mmHg 95%
    07:00 +12°C° 0 mm 3 m/S 763 mmHg 89%
    08:00 +13°C° 0 mm 3 m/S 763 mmHg 84%
    09:00 +15°C° 0 mm 4 m/S 763 mmHg 79%
    10:00 +17°C° 0 mm 4 m/S 763 mmHg 73%
    11:00 +18°C° 0 mm 4 m/S 763 mmHg 66%
    12:00 +20°C° 0 mm 4 m/S 763 mmHg 60%
    13:00 +20°C° 0 mm 4 m/S 763 mmHg 59%
    14:00 +20°C° 0 mm 4 m/S 763 mmHg 58%
    15:00 +20°C° 0 mm 4 m/S 763 mmHg 57%
    16:00 +19°C° 0 mm 4 m/S 763 mmHg 61%
    17:00 +17°C° 0 mm 4 m/S 763 mmHg 66%
    18:00 +14°C° 0 mm 3 m/S 763 mmHg 70%
    19:00 +14°C° 0 mm 3 m/S 764 mmHg 71%
    20:00 +13°C° 0 mm 3 m/S 764 mmHg 71%
    21:00 +12°C° 0 mm 3 m/S 764 mmHg 72%
    22:00 +12°C° 0 mm 3 m/S 764 mmHg 73%
    23:00 +11°C° 0 mm 3 m/S 764 mmHg 74%

    21 Oktober, Sonntag

    Zeit Temperatur Niederschläge Wind Luftdruck Luftfeuchtigkeit
    00:00 +11°C° 0 mm 3 m/S 764 mmHg 76%
    01:00 +10°C° 0 mm 2 m/S 764 mmHg 76%
    02:00 +10°C° 0 mm 2 m/S 764 mmHg 76%
    03:00 +9°C° 0 mm 2 m/S 764 mmHg 77%
    04:00 +9°C° 0 mm 2 m/S 764 mmHg 77%
    05:00 +9°C° 0 mm 2 m/S 764 mmHg 76%
    06:00 +9°C° 0 mm 2 m/S 764 mmHg 76%
    07:00 +10°C° 0 mm 2 m/S 764 mmHg 69%
    08:00 +13°C° 0 mm 2 m/S 764 mmHg 63%
    09:00 +14°C° 0 mm 2 m/S 764 mmHg 56%
    10:00 +16°C° 0 mm 3 m/S 764 mmHg 50%
    11:00 +17°C° 0 mm 3 m/S 764 mmHg 45%
    12:00 +19°C° 0 mm 3 m/S 764 mmHg 39%
    13:00 +19°C° 0 mm 3 m/S 763 mmHg 39%
    14:00 +19°C° 0 mm 3 m/S 763 mmHg 39%
    15:00 +19°C° 0 mm 3 m/S 763 mmHg 38%
    16:00 +18°C° 0 mm 3 m/S 763 mmHg 44%
    17:00 +16°C° 0 mm 2 m/S 763 mmHg 50%
    18:00 +14°C° 0 mm 2 m/S 763 mmHg 55%
    19:00 +14°C° 0 mm 2 m/S 763 mmHg 59%
    20:00 +13°C° 0 mm 2 m/S 763 mmHg 63%
    21:00 +12°C° 0 mm 2 m/S 763 mmHg 66%
    22:00 +12°C° 0 mm 2 m/S 763 mmHg 70%
    23:00 +12°C° 0 mm 2 m/S 763 mmHg 74%
    Mehr zeigen